This is the latest recevied weather packets stored in our database for station/object CT2IRJ-11. If no packets are shown the sender has not sent any weather packets the latest 10 day(s).
| Time | Temp. | Humidity | Pressure | Rain* | Wind** | Luminosity | Snow |
|---|---|---|---|---|---|---|---|
| 1778007211 | 16.67° C | 68% | 1016.3 hPa | 0 mm | - | 19 W/m² | - |
| 1778006910 | 16.67° C | 67% | 1016.3 hPa | 0 mm | - | 20 W/m² | - |
| 1778006610 | 16.67° C | 66% | 1015.9 hPa | 0 mm | - | 23 W/m² | - |
| 1778006313 | 17.22° C | 66% | 1015.6 hPa | 0 mm | - | 26 W/m² | - |
| 1778006011 | 17.22° C | 65% | 1015.9 hPa | 0 mm | - | 26 W/m² | - |
| 1778005710 | 17.78° C | 62% | 1015.6 hPa | 0 mm | - | 29 W/m² | - |
| 1778005410 | 17.78° C | 61% | 1015.6 hPa | 0 mm | - | 30 W/m² | - |
| 1778005111 | 17.78° C | 61% | 1015.6 hPa | 0 mm | - | 32 W/m² | - |
| 1778004809 | 18.33° C | 60% | 1015.9 hPa | 0 mm | - | 34 W/m² | - |
| 1778004510 | 18.33° C | 60% | 1015.6 hPa | 0 mm | - | 37 W/m² | - |
| 1778004210 | 18.33° C | 59% | 1015.6 hPa | 0 mm | - | 38 W/m² | - |
| 1778003910 | 18.89° C | 59% | 1015.6 hPa | 0 mm | - | 41 W/m² | - |
| 1778003610 | 18.89° C | 59% | 1015.6 hPa | 0 mm | - | 82 W/m² | - |
| 1778003310 | 19.44° C | 58% | 1015.6 hPa | 0 mm | - | 55 W/m² | - |
| 1778003010 | 18.89° C | 58% | 1015.6 hPa | 0 mm | - | 80 W/m² | - |
| 1778002710 | 18.89° C | 59% | 1015.6 hPa | 0 mm | - | 93 W/m² | - |
| 1778002410 | 19.44° C | 57% | 1015.6 hPa | 0 mm | - | 87 W/m² | - |
| 1778002110 | 18.89° C | 57% | 1015.6 hPa | 0 mm | - | 77 W/m² | - |
| 1778001809 | 18.89° C | 57% | 1015.6 hPa | 0 mm | - | 89 W/m² | - |
| 1778001510 | 20.56° C | 55% | 1015.6 hPa | 0 mm | - | 86 W/m² | - |
| 1778001209 | 20.56° C | 53% | 1015.9 hPa | 0 mm | - | 251 W/m² | - |
| 1778000910 | 21.11° C | 53% | 1015.6 hPa | 0 mm | - | 249 W/m² | - |
| 1778000610 | 20.56° C | 55% | 1015.6 hPa | 0 mm | - | 278 W/m² | - |
| 1778000310 | 20° C | 55% | 1015.6 hPa | 0 mm | - | 293 W/m² | - |
| 1778000009 | 21.11° C | 55% | 1015.6 hPa | 0 mm | - | 134 W/m² | - |
* Rain latest hour (hover to see other rain measurements)
** Current wind speed in m/s (hover to see current wind gust speed)